#datint,netname,site,siteID,timestamp,IntT,BattV,AirT2,AirT,AirT_Avg,AirT_Max,AirT_Min,RH_Avg,RH_Max,RH_Min,EA_Avg,Td_Avg,Td_Max,Td_Min,WindS_Smp,WindS_Avg,WindD_Avg,WindD_SD,WindS_Max,ETo,ETr,SoilT4,SoilT8,SoilVWC8,SolarW_Avg,wetstate_Avg,wetT_Avg,Precip_accum,Precip_WPG,Precip_TB
15min,AgWx,beryljct,423,17APR2020:00:00:00,37.5,12.91,36.9,36.8,37.1,37.5,36.6,58,59,57,0.430,23.6,23.8,23.4,4.297,4.3,48,8.4,6.0,0.00005,0.00009,48.7,48.1,21,0,.,.,11.68,0.00,0.00
15min,AgWx,beryljct,423,17APR2020:00:15:00,37.2,12.89,36.7,36.7,36.6,36.9,36.3,58,59,58,0.424,23.3,23.6,23.2,2.324,2.9,52,12,5.2,-0.00001,0.00000,48.5,48.1,21,0,.,.,11.68,0.00,0.00
15min,AgWx,beryljct,423,17APR2020:00:30:00,36.9,12.89,37.1,36.7,36.3,36.7,35.9,58,59,57,0.418,23.0,23.2,22.8,2.631,2.9,31,17,4.3,-0.00002,0.00000,48.3,48.1,21,0,.,.,11.68,0.00,0.00
15min,AgWx,beryljct,423,17APR2020:00:45:00,36.6,12.88,37.0,36.3,35.8,36.8,34.8,58,60,56,0.414,22.6,23.0,22.3,3.135,3.2,341,12,4.7,0.00000,0.00002,48.1,48.1,21,0,.,.,11.69,0.00,0.00
15min,AgWx,beryljct,423,17APR2020:01:00:00,36.2,12.87,35.6,35.3,35.8,36.4,35.3,58,58,56,0.404,22.3,22.6,22.0,1.995,1.9,3.4,21,3.6,-0.00008,-0.00009,47.9,48.0,21,0,.,.,11.68,0.00,0.00
15min,AgWx,beryljct,423,17APR2020:01:15:00,35.8,12.86,35.9,35.7,35.6,35.8,35.3,57,58,56,0.399,21.9,22.2,21.7,1.578,1.0,6.4,20,1.9,-0.00015,-0.00020,47.7,48.0,21,0,.,.,11.69,0.00,0.00
15min,AgWx,beryljct,423,17APR2020:01:30:00,35.4,12.85,35.1,34.8,35.5,35.8,34.8,56,57,56,0.388,21.5,21.7,21.0,2.938,1.8,8.0,15,2.9,-0.00008,-0.00009,47.5,48.0,21,0,.,.,11.69,0.00,0.00
15min,AgWx,beryljct,423,17APR2020:01:45:00,35.1,12.85,34.9,34.7,34.6,34.9,34.2,57,58,56,0.382,20.9,21.2,20.7,1.798,2.1,8.6,20,3.2,-0.00006,-0.00006,47.3,48.0,21,0,.,.,11.69,0.00,0.00
15min,AgWx,beryljct,423,17APR2020:02:00:00,34.7,12.82,34.2,34.1,34.6,34.8,34.1,56,56,55,0.374,20.5,20.8,20.2,1.622,1.9,22,15,2.9,-0.00007,-0.00008,47.1,47.9,20,0,.,.,11.69,0.00,0.00
15min,AgWx,beryljct,423,17APR2020:02:15:00,34.4,12.82,33.6,33.5,33.9,34.2,33.4,56,57,56,0.370,20.0,20.3,19.7,2.762,2.5,31,8.3,3.2,-0.00003,-0.00003,46.9,47.9,21,0,.,.,11.69,0.00,0.00
15min,AgWx,beryljct,423,17APR2020:02:30:00,34.0,12.82,32.2,32.1,32.5,33.5,31.9,59,61,57,0.369,19.8,20.1,19.6,2.981,3.2,49,7.8,4.6,-0.00000,0.00001,46.8,47.8,21,0,.,.,11.69,0.00,0.00
15min,AgWx,beryljct,423,17APR2020:02:45:00,33.4,12.81,32.7,32.7,32.1,32.7,31.9,60,61,58,0.366,19.8,20.1,19.6,2.631,2.7,40,13,4.4,-0.00003,-0.00002,46.6,47.8,21,0,.,.,11.69,0.00,0.00
15min,AgWx,beryljct,423,17APR2020:03:00:00,32.9,12.8,31.7,31.9,32.1,32.6,31.8,59,60,58,0.365,19.5,19.6,19.4,2.587,3.0,44,13,4.4,-0.00001,0.00000,46.4,47.7,21,0,.,.,11.69,0.00,0.00
15min,AgWx,beryljct,423,17APR2020:03:15:00,32.5,12.79,32.2,32.0,31.8,32.3,31.5,60,61,59,0.364,19.6,19.8,19.4,4.034,2.9,41,11,4.1,-0.00002,-0.00001,46.3,47.7,21,0,.,.,11.69,0.00,0.00
15min,AgWx,beryljct,423,17APR2020:03:30:00,32.3,12.78,32.1,31.9,31.6,32.0,31.4,62,62,60,0.374,20.0,20.4,19.4,2.521,3.6,38,5.6,5.1,0.00001,0.00003,46.1,47.7,21,0,.,.,11.69,0.00,0.00
15min,AgWx,beryljct,423,17APR2020:03:45:00,32.1,12.78,31.5,31.3,31.7,32.1,31.2,62,63,61,0.376,20.1,20.3,19.9,4.297,3.5,52,9.6,5.4,-0.00000,0.00002,45.9,47.6,21,0,.,.,11.69,0.00,0.00
15min,AgWx,beryljct,423,17APR2020:04:00:00,31.8,12.77,30.4,30.8,31.0,31.3,30.7,64,65,63,0.379,20.4,20.6,20.2,3.551,4.2,58,6.5,5.7,0.00002,0.00004,45.7,47.5,21,0,.,.,11.69,0.00,0.00
15min,AgWx,beryljct,423,17APR2020:04:15:00,31.5,12.76,30.9,30.7,30.7,31.0,30.6,65,65,64,0.375,20.3,20.6,20.2,3.223,3.5,52,8.0,5.3,-0.00001,0.00001,45.6,47.5,21,0,.,.,11.69,0.00,0.00
15min,AgWx,beryljct,423,17APR2020:04:30:00,31.1,12.75,30.7,30.5,30.5,30.8,30.3,65,67,64,0.381,20.3,20.7,19.9,2.389,3.4,62,8.5,4.3,-0.00002,-0.00000,45.4,47.4,21,0,.,.,11.69,0.00,0.00
15min,AgWx,beryljct,423,17APR2020:04:45:00,30.9,12.75,30.8,30.8,30.7,30.8,30.5,66,66,65,0.383,20.6,20.8,20.4,2.105,2.5,69,6.0,3.5,-0.00005,-0.00006,45.3,47.4,21,0,.,.,11.69,0.00,0.00
15min,AgWx,beryljct,423,17APR2020:05:00:00,30.9,12.74,32.4,31.5,31.0,31.5,30.8,65,66,64,0.384,20.8,21.0,20.5,2.302,1.7,72,15,2.8,-0.00010,-0.00012,45.1,47.3,21,0,.,.,11.69,0.01,0.00
15min,AgWx,beryljct,423,17APR2020:05:15:00,31.4,12.73,32.3,32.1,31.9,32.1,31.6,64,65,63,0.397,21.2,21.7,20.8,3.091,3.5,87,9.7,4.8,-0.00001,0.00001,45.0,47.3,21,0,.,.,11.69,0.00,0.00
15min,AgWx,beryljct,423,17APR2020:05:30:00,32.2,12.73,32.7,32.5,32.3,32.6,32.1,64,65,64,0.400,21.7,21.9,21.5,4.516,4.6,62,6.8,6.3,0.00003,0.00005,44.8,47.2,21,0,.,.,11.69,0.00,0.00
15min,AgWx,beryljct,423,17APR2020:05:45:00,33.0,12.73,33.6,33.3,32.8,33.3,32.5,64,65,62,0.399,21.9,22.2,21.6,4.735,4.8,62,6.8,6.8,0.00004,0.00007,44.7,47.1,21,0,.,.,11.69,0.00,0.00
15min,AgWx,beryljct,423,17APR2020:06:00:00,33.7,12.73,33.8,33.5,33.4,33.6,33.2,62,62,61,0.398,21.6,21.8,21.4,7.453,6.2,58,8.0,8.6,0.00009,0.00012,44.5,47.1,21,0,.,.,11.69,0.00,0.00
15min,AgWx,beryljct,423,17APR2020:06:15:00,34.3,12.72,34.0,33.8,33.7,34.0,33.3,61,62,60,0.400,21.7,21.9,21.5,5.7,4.8,75,9.9,8.1,0.00029,0.00051,44.4,47.0,21,0,.,.,11.69,0.00,0.00
15min,AgWx,beryljct,423,17APR2020:06:30:00,34.7,12.72,34.6,34.0,33.9,34.0,33.7,61,62,61,0.403,22.0,22.2,21.8,9.6,6.9,51,9.8,10.7,0.00038,0.00066,44.3,47.0,21,0,.,.,11.69,0.00,0.00
15min,AgWx,beryljct,423,17APR2020:06:45:00,35.1,12.71,34.2,34.0,34.1,34.2,34.0,61,62,60,0.407,21.9,22.2,21.6,3.749,6.8,45,9.1,10.0,0.00039,0.00068,44.2,46.9,21,0,.,.,11.69,0.00,0.00
15min,AgWx,beryljct,423,17APR2020:07:00:00,35.4,12.71,34.2,34.0,34.1,34.3,34.0,60,62,58,0.402,21.7,22.3,21.2,5.722,5.2,61,9.9,8.9,0.00033,0.00057,44.2,46.9,21,1,.,.,11.69,0.00,0.00
15min,AgWx,beryljct,423,17APR2020:07:15:00,35.4,12.72,34.3,34.1,34.1,34.2,34.0,60,61,59,0.398,21.8,22.0,21.4,3.398,5.0,60,12,7.8,0.00032,0.00056,44.1,46.8,21,3,.,.,11.69,0.00,0.00
15min,AgWx,beryljct,423,17APR2020:07:30:00,35.5,12.73,34.5,34.3,34.2,34.3,34.1,60,61,58,0.396,21.6,21.9,21.2,6.16,5.6,44,6.8,8.1,0.00040,0.00066,44.0,46.7,21,14,.,.,11.69,0.00,0.00
15min,AgWx,beryljct,423,17APR2020:07:45:00,35.6,12.75,35.0,34.7,34.4,34.8,34.2,59,60,57,0.389,21.4,21.7,21.1,5.678,6.3,44,7.0,9.2,0.00049,0.00078,44.0,46.7,21,27,.,.,11.69,0.00,0.00
15min,AgWx,beryljct,423,17APR2020:08:00:00,35.9,12.79,35.6,35.3,34.9,35.3,34.7,57,58,55,0.386,21.3,21.8,20.8,6.401,5.4,45,9.1,7.7,0.00054,0.00082,43.9,46.6,21,49,.,.,11.69,0.00,0.00
15min,AgWx,beryljct,423,17APR2020:08:15:00,36.2,12.84,36.2,35.8,35.5,35.8,35.3,55,56,53,0.380,21.0,21.6,20.4,6.62,5.7,51,7.1,7.8,0.00064,0.00095,43.9,46.6,21,63,.,.,11.69,0.00,0.00
15min,AgWx,beryljct,423,17APR2020:08:30:00,36.7,12.92,36.6,36.3,36.0,36.3,35.8,52,54,51,0.373,20.3,21.1,19.8,6.883,6.8,59,9.1,9.4,0.00083,0.00122,43.8,46.5,21,96,.,.,11.69,0.00,0.00
15min,AgWx,beryljct,423,17APR2020:08:45:00,37.5,13.09,37.3,37.6,36.9,37.6,36.3,52,53,50,0.397,20.7,21.6,19.9,5.722,5.7,58,9.7,7.9,0.00108,0.00145,43.8,46.4,21,183,.,.,11.68,0.00,0.00
15min,AgWx,beryljct,423,17APR2020:09:00:00,38.6,13.26,39.1,39.0,38.1,39.0,37.6,49,52,47,0.391,20.8,21.6,19.5,6.62,6.6,53,11,8.8,0.00126,0.00171,43.8,46.4,21,212,.,.,11.68,0.00,0.00
15min,AgWx,beryljct,423,17APR2020:09:15:00,40.4,13.71,41.7,41.7,40.2,41.7,38.9,46,49,43,0.415,21.1,22.8,19.7,8.09,8.4,53,14,12.4,0.00192,0.00252,43.7,46.4,21,381,.,.,11.68,0.00,0.00
15min,AgWx,beryljct,423,17APR2020:09:30:00,42.2,14.56,41.7,41.1,41.1,41.7,40.7,42,46,40,0.381,19.8,22.5,18.4,10.19,11.3,36,16,15.7,0.00212,0.00290,43.7,46.3,21,391,.,.,11.68,0.00,0.00
15min,AgWx,beryljct,423,17APR2020:09:45:00,43.4,14.6,40.7,40.4,40.7,41.5,40.1,45,51,41,0.367,21.2,24.0,18.2,13.88,10.9,8.1,19,17.2,0.00238,0.00312,43.8,46.3,21,510,.,.,11.68,0.00,0.00
15min,AgWx,beryljct,423,17APR2020:10:00:00,44.5,14.55,40.1,40.6,40.5,41.1,39.7,50,54,44,0.415,23.4,25.0,20.3,8.62,11.0,4.8,16,14.3,0.00253,0.00322,43.8,46.2,21,580,.,.,11.68,0.00,0.00
15min,AgWx,beryljct,423,17APR2020:10:15:00,44.9,14.51,41.8,42.2,40.6,42.2,40.0,49,50,47,0.443,22.7,24.2,21.2,13.46,9.9,2.9,18,15.1,0.00233,0.00300,43.9,46.2,21,500,.,.,11.68,0.00,0.00
15min,AgWx,beryljct,423,17APR2020:10:30:00,46.0,14.52,44.6,43.2,42.6,43.3,41.6,47,50,45,0.437,23.6,25.3,22.4,8.2,10.2,32,16,16.1,0.00295,0.00371,44.0,46.1,21,653,.,.,11.67,0.00,0.00
15min,AgWx,beryljct,423,17APR2020:10:45:00,47.2,14.55,42.8,44.1,43.6,44.4,43.0,45,48,42,0.440,23.7,25.2,21.6,8.79,10.7,26,15,14.8,0.00315,0.00397,44.0,46.1,21,684,.,.,11.67,0.00,0.00
15min,AgWx,beryljct,423,17APR2020:11:00:00,48.5,14.47,46.6,46.1,45.3,46.4,44.0,42,49,39,0.437,23.8,27.5,21.2,13.7,12.2,46,12,17.8,0.00351,0.00447,44.2,46.1,21,746,.,.,11.67,0.00,0.00
15min,AgWx,beryljct,423,17APR2020:11:15:00,49.5,14.43,45.1,45.5,45.5,46.2,44.9,42,44,40,0.442,23.9,25.0,22.9,12.17,12.9,50,13,17.2,0.00348,0.00448,44.3,46.0,21,727,.,.,11.67,0.01,0.00
15min,AgWx,beryljct,423,17APR2020:11:30:00,50.2,14.46,47.7,47.6,46.3,47.6,45.2,41,43,38,0.457,23.7,25.8,22.0,11.53,11.3,36,15,15.4,0.00369,0.00467,44.5,46.0,21,762,.,.,11.67,0.00,0.00
15min,AgWx,beryljct,423,17APR2020:11:45:00,51.0,14.02,46.9,47.1,47.0,47.8,46.4,40,43,38,0.437,24.1,26.1,22.6,10.61,12.9,42,13,17.5,0.00386,0.00494,44.7,45.9,21,793,.,.,11.67,0.00,0.00
15min,AgWx,beryljct,423,17APR2020:12:00:00,51.7,14,49.8,48.6,47.4,48.6,46.4,39,41,37,0.445,23.7,25.6,21.4,11.09,12.1,44,16,17.9,0.00421,0.00530,45.0,45.9,21,878,.,.,11.67,0.00,0.00
15min,AgWx,beryljct,423,17APR2020:12:15:00,51.9,14,47.5,48.7,47.5,48.8,46.6,38,42,34,0.466,22.8,26.4,19.6,16.62,11.8,41,20,16.7,0.00350,0.00455,45.2,45.9,21,651,.,.,11.67,0.00,0.00
15min,AgWx,beryljct,423,17APR2020:12:30:00,52.4,14.01,49.8,48.3,48.5,49.7,47.6,38,41,36,0.438,24.1,26.7,22.3,11.9,12.3,51,15,17.5,0.00400,0.00513,45.5,45.9,21,781,.,.,11.66,0.00,0.00
15min,AgWx,beryljct,423,17APR2020:12:45:00,53.1,13.97,48.6,50.0,49.2,50.1,48.2,38,42,34,0.478,24.8,27.7,22.2,16.75,10.8,38,17,16.8,0.00428,0.00535,45.8,45.9,21,846,.,.,11.66,0.00,0.00
15min,AgWx,beryljct,423,17APR2020:13:00:00,54.0,13.97,50.7,50.4,50.1,50.8,49.2,37,40,34,0.488,25.1,27.2,21.8,16.57,11.8,34,17,17.3,0.00474,0.00592,46.1,45.8,21,953,.,.,11.66,0.00,0.00
15min,AgWx,beryljct,423,17APR2020:13:15:00,54.7,13.97,48.4,50.3,50.2,51.3,49.6,36,39,33,0.453,24.6,26.8,22.1,13.13,12.5,32,17,17.8,0.00455,0.00578,46.5,45.9,21,894,.,.,11.66,0.00,0.00
15min,AgWx,beryljct,423,17APR2020:13:30:00,55.1,13.93,50.6,50.6,50.9,52.0,50.1,35,39,32,0.450,24.5,26.6,22.2,9.62,11.7,28,20,16.7,0.00495,0.00619,46.8,45.8,21,978,.,.,11.66,0.00,0.00
15min,AgWx,beryljct,423,17APR2020:13:45:00,55.6,13.94,50.7,51.3,51.5,52.5,50.6,37,40,33,0.464,25.8,28.9,22.8,10.81,12.3,41,18,16.5,0.00500,0.00626,47.1,45.9,21,984,.,.,11.66,0.00,0.00
15min,AgWx,beryljct,423,17APR2020:14:00:00,56.3,13.93,53.0,53.0,52.0,53.2,50.6,35,39,31,0.509,25.4,28.4,22.3,13.07,9.6,33,24,16.0,0.00492,0.00605,47.5,45.9,21,940,.,.,11.66,0.00,0.00
15min,AgWx,beryljct,423,17APR2020:14:15:00,57.1,13.9,52.0,52.5,52.7,53.2,52.2,35,38,31,0.426,25.8,27.8,22.8,6.642,9.8,34,21,15.3,0.00507,0.00626,47.9,45.9,21,961,.,.,11.66,0.00,0.00
15min,AgWx,beryljct,423,17APR2020:14:30:00,58.0,13.87,52.8,53.5,53.4,54.6,52.3,33,36,30,0.483,24.7,28.3,22.8,10.11,9.5,19,21,15.6,0.00515,0.00636,48.3,45.9,21,954,.,.,11.65,0.00,0.00
15min,AgWx,beryljct,423,17APR2020:14:45:00,59.3,13.95,56.5,54.0,53.9,55.0,53.3,34,37,30,0.459,26.0,28.9,23.3,6.796,6.3,34,29,12.1,0.00513,0.00611,48.7,46.0,21,941,.,.,11.65,0.00,0.00
15min,AgWx,beryljct,423,17APR2020:15:00:00,60.7,13.83,55.2,54.9,54.6,55.6,53.8,32,38,30,0.471,25.3,30.6,23.6,2.938,4.8,16,32,10.5,0.00495,0.00581,49.1,46.0,21,895,.,.,11.65,0.00,0.00
15min,AgWx,beryljct,423,17APR2020:15:15:00,62.1,13.78,54.9,56.6,55.7,57.4,54.2,33,40,29,0.463,26.7,32.7,23.2,7.892,4.4,22,42,8.5,0.00496,0.00577,49.5,46.1,21,883,.,.,11.65,0.00,0.00
15min,AgWx,beryljct,423,17APR2020:15:30:00,63.3,13.76,56.1,56.3,56.0,57.1,55.1,31,35,29,0.533,25.8,28.9,23.9,5.239,4.0,336,63,7.5,0.00485,0.00564,49.9,46.1,21,856,.,.,11.65,0.00,0.00
15min,AgWx,beryljct,423,17APR2020:15:45:00,63.4,13.76,57.1,56.3,55.7,56.4,55.1,32,35,29,0.460,26.3,29.1,24.6,1.578,3.6,122,47,9.7,0.00322,0.00385,50.4,46.2,20,541,.,.,11.65,0.01,0.00
15min,AgWx,beryljct,423,17APR2020:16:00:00,62.8,13.77,58.0,58.5,56.3,58.5,55.8,31,34,30,0.529,26.2,29.2,24.8,1.293,1.9,171,59,6.3,0.00282,0.00326,50.8,46.2,21,495,.,.,11.65,0.00,0.00
15min,AgWx,beryljct,423,17APR2020:16:15:00,63.8,13.73,56.6,57.6,57.8,58.9,56.9,33,39,29,0.548,28.6,33.6,26.3,3.88,2.5,117,50,6.1,0.00430,0.00489,51.2,46.3,21,754,.,.,11.65,0.00,0.00
15min,AgWx,beryljct,423,17APR2020:16:30:00,64.9,13.65,58.0,57.9,57.5,58.1,57.2,33,36,32,0.534,28.8,31.2,27.4,4.319,3.9,97,21,6.4,0.00409,0.00482,51.6,46.4,21,712,.,.,11.65,0.00,0.00
15min,AgWx,beryljct,423,17APR2020:16:45:00,65.8,13.64,59.9,59.2,58.3,59.3,57.3,30,33,28,0.519,27.3,29.3,25.4,1.688,2.4,82,77,5.5,0.00387,0.00444,51.9,46.4,21,680,.,.,11.65,0.00,0.00
15min,AgWx,beryljct,423,17APR2020:17:00:00,67.0,13.66,58.1,58.6,59.1,60.0,58.4,30,34,27,0.510,27.3,31.8,25.4,0.986,2.0,129,62,5.1,0.00309,0.00356,52.2,46.5,20,550,.,.,11.65,0.00,0.00
15min,AgWx,beryljct,423,17APR2020:17:15:00,67.1,13.69,58.9,59.1,58.9,59.7,58.2,29,31,28,0.505,26.4,28.1,25.7,0,1.4,299,70,3.6,0.00251,0.00287,52.5,46.6,20,477,.,.,11.65,0.00,0.00
15min,AgWx,beryljct,423,17APR2020:17:30:00,67.1,13.67,58.8,59.0,59.3,59.8,58.9,28,31,27,0.496,26.6,28.8,25.5,1.293,3.1,3.3,19,7.2,0.00262,0.00321,52.8,46.7,20,456,.,.,11.65,0.00,0.00
15min,AgWx,beryljct,423,17APR2020:17:45:00,66.2,13.7,58.1,58.0,58.6,59.6,57.8,32,37,28,0.506,28.6,31.5,26.1,3.793,4.3,73,44,7.6,0.00171,0.00235,53.1,46.8,20,283,.,.,11.65,0.01,0.00
15min,AgWx,beryljct,423,17APR2020:18:00:00,64.4,13.74,57.7,57.7,58.2,58.5,57.7,33,43,29,0.646,28.8,35.4,26.5,2.017,2.3,112,29,5.4,0.00101,0.00137,53.3,46.9,20,203,.,.,11.65,0.00,0.00
15min,AgWx,beryljct,423,17APR2020:18:15:00,62.6,13.8,56.6,57.1,57.8,58.1,57.0,35,41,31,0.606,30.4,33.6,27.4,6.204,3.8,70,10,7.0,0.00091,0.00141,53.4,47.0,20,164,.,.,11.66,0.00,0.00
15min,AgWx,beryljct,423,17APR2020:18:30:00,61.1,13.82,57.6,57.6,57.1,57.7,56.3,39,43,35,0.576,32.1,34.5,30.2,7.322,5.5,75,9.4,7.5,0.00122,0.00187,53.5,47.1,20,187,.,.,11.66,0.00,0.00
15min,AgWx,beryljct,423,17APR2020:18:45:00,60.1,13.36,57.0,57.0,57.0,57.6,56.4,38,42,35,0.580,31.9,33.9,29.9,8.37,6.8,62,15,10.5,0.00128,0.00204,53.6,47.3,21,172,.,.,11.66,0.00,0.00
15min,AgWx,beryljct,423,17APR2020:19:00:00,59.0,13.3,55.7,55.7,56.1,57.0,55.5,37,40,36,0.540,30.3,32.5,29.0,9.51,8.1,45,7.8,11.9,0.00107,0.00193,53.6,47.4,21,102,.,.,11.66,0.00,0.00
15min,AgWx,beryljct,423,17APR2020:19:15:00,57.6,13.26,54.0,54.6,55.0,55.7,54.4,37,39,36,0.555,29.5,30.3,28.6,6.993,8.4,48,7.4,12.0,0.00090,0.00175,53.5,47.5,21,67,.,.,11.66,0.00,0.00
15min,AgWx,beryljct,423,17APR2020:19:30:00,56.4,13.21,53.5,54.1,54.4,54.7,54.1,37,38,36,0.529,28.8,29.7,28.0,7.76,9.2,43,5.6,12.8,0.00062,0.00077,53.5,47.6,21,64,.,.,11.66,0.00,0.00
15min,AgWx,beryljct,423,17APR2020:19:45:00,55.5,13.14,53.4,52.8,53.6,54.2,52.8,36,38,35,0.493,27.4,28.7,26.2,14.16,10.8,44,7.4,17.0,0.00065,0.00079,53.4,47.7,20,54,.,.,11.67,0.01,0.00
15min,AgWx,beryljct,423,17APR2020:20:00:00,54.7,13.1,51.4,52.0,52.4,53.0,52.0,36,37,35,0.485,26.2,27.0,25.6,7.475,11.1,54,6.9,16.1,0.00060,0.00074,53.2,47.8,20,23,.,.,11.67,0.00,0.00
15min,AgWx,beryljct,423,17APR2020:20:15:00,53.9,13.05,50.9,51.2,51.6,52.1,51.0,36,38,35,0.460,25.7,26.8,24.8,11.07,11.6,52,8.5,16.7,0.00058,0.00070,53.1,47.9,21,5,.,.,11.67,0.00,0.00
15min,AgWx,beryljct,423,17APR2020:20:30:00,53.0,13.05,49.9,50.1,50.7,51.1,50.0,36,38,35,0.451,24.7,25.6,24.2,9.97,13.4,47,6.4,18.5,0.00061,0.00073,52.9,48.0,21,1,.,.,11.67,0.00,0.00
15min,AgWx,beryljct,423,17APR2020:20:45:00,52.0,13.04,49.7,49.6,49.8,50.1,49.5,36,37,36,0.435,24.1,24.9,23.6,13.18,11.9,42,8.1,16.1,0.00055,0.00067,52.7,48.1,20,0,.,.,11.67,0.00,0.00
15min,AgWx,beryljct,423,17APR2020:21:00:00,51.4,13.02,48.2,48.4,49.1,49.6,48.4,37,40,36,0.466,24.2,25.4,23.7,7.059,10.7,43,8.0,15.2,0.00050,0.00061,52.6,48.2,20,0,.,.,11.67,0.00,0.00
15min,AgWx,beryljct,423,17APR2020:21:15:00,50.4,13.02,47.8,47.4,47.8,48.6,47.3,41,42,40,0.460,25.4,25.8,24.9,6.467,6.8,46,7.0,10.3,0.00030,0.00040,52.4,48.2,21,0,.,.,11.67,0.00,0.00
15min,AgWx,beryljct,423,17APR2020:21:30:00,49.6,13,47.4,47.2,47.1,47.4,46.8,42,43,41,0.461,25.2,25.5,24.9,4.341,5.9,38,12,8.7,0.00025,0.00034,52.2,48.3,21,0,.,.,11.67,0.00,0.00
15min,AgWx,beryljct,423,17APR2020:21:45:00,49.1,13,47.2,47.1,47.3,47.6,47.0,41,42,40,0.462,25.0,25.4,24.4,4.647,5.8,27,8.3,8.3,0.00025,0.00034,52.0,48.3,21,0,.,.,11.68,0.00,0.00
15min,AgWx,beryljct,423,17APR2020:22:00:00,48.8,12.99,46.6,47.2,47.4,47.7,47.0,40,42,39,0.445,24.3,25.2,23.8,4.099,4.5,1.6,13,6.4,0.00018,0.00026,51.8,48.4,20,0,.,.,11.67,0.00,0.00
15min,AgWx,beryljct,423,17APR2020:22:15:00,48.3,12.98,47.3,47.1,46.7,47.2,45.9,41,43,39,0.434,24.4,25.1,23.7,4.231,3.8,14,11,5.3,0.00012,0.00019,51.6,48.5,21,0,.,.,11.67,0.00,0.00
15min,AgWx,beryljct,423,17APR2020:22:30:00,48.1,12.97,46.2,46.3,46.6,47.3,46.1,42,44,39,0.460,24.5,25.3,23.6,2.346,3.1,19,11,4.7,0.00006,0.00012,51.4,48.5,20,0,.,.,11.67,0.00,0.00
15min,AgWx,beryljct,423,17APR2020:22:45:00,48.0,12.97,47.5,46.9,46.7,47.3,46.0,42,44,40,0.451,24.9,25.5,24.0,0,1.6,11,22,3.4,-0.00010,-0.00011,51.2,48.5,21,0,.,.,11.67,0.00,0.00
15min,AgWx,beryljct,423,17APR2020:23:00:00,48.0,12.96,46.6,46.9,46.7,47.3,46.4,43,45,40,0.488,25.2,26.5,24.2,0.811,0.9,267,20,2.0,-0.00020,-0.00027,51.0,48.5,20,0,.,.,11.67,0.00,0.00
15min,AgWx,beryljct,423,17APR2020:23:15:00,48.1,12.93,47.1,46.9,46.9,47.3,46.6,44,46,40,0.478,25.9,27.1,24.5,2.17,2.0,276,13,3.0,-0.00006,-0.00005,50.9,48.5,20,0,.,.,11.68,0.00,0.00
15min,AgWx,beryljct,423,17APR2020:23:30:00,47.9,12.94,45.6,45.4,45.9,46.9,45.1,50,55,44,0.530,28.4,30.1,26.0,8.09,6.9,160,19,11.4,0.00023,0.00030,50.7,48.6,21,0,.,.,11.68,0.00,0.00
15min,AgWx,bigpiney,439,17APR2020:00:00:00,18.7,12.61,7.9,8.5,9.5,10.9,8.5,86,91,83,0.186,6.2,8.7,4.4,2.061,2.9,228,11,5.1,0.00000,0.00001,31.7,31.9,17,0,0,0.0,6.09,0.00,0.00
15min,AgWx,bigpiney,439,17APR2020:00:15:00,17.9,12.62,7.7,7.4,7.6,9.0,6.9,84,87,82,0.181,3.9,5.9,2.6,4.121,4.2,225,8.7,5.3,0.00001,0.00002,31.7,31.9,17,0,0,0.0,6.09,0.00,0.00
15min,AgWx,bigpiney,439,17APR2020:00:30:00,17.1,12.58,9.4,8.6,7.6,8.6,6.9,86,87,84,0.193,4.2,5.2,3.2,2.85,3.1,222,14,4.3,0.00001,0.00001,31.7,31.9,17,0,0,0.0,6.09,0.00,0.00
15min,AgWx,bigpiney,439,17APR2020:00:45:00,16.6,12.58,10.3,9.9,9.6,10.0,8.6,85,87,83,0.202,6.1,6.5,5.2,1.622,2.9,251,30,4.4,0.00001,0.00001,31.7,31.9,17,0,0,0.0,6.09,0.00,0.00
15min,AgWx,bigpiney,439,17APR2020:01:00:00,16.3,12.57,10.4,9.8,9.9,10.5,9.2,85,86,82,0.201,6.2,7.0,4.8,1.491,1.3,237,25,2.4,-0.00001,-0.00001,31.7,31.9,17,0,0,0.0,6.09,0.00,0.00
15min,AgWx,bigpiney,439,17APR2020:01:15:00,15.7,12.56,6.0,5.3,7.8,10.4,5.1,82,85,80,0.160,3.5,6.8,0.4,6.072,3.5,221,9.4,6.2,0.00001,0.00002,31.7,31.9,17,0,0,0.0,6.09,0.00,0.00
15min,AgWx,bigpiney,439,17APR2020:01:30:00,14.7,12.54,10.4,9.6,5.7,9.6,3.9,86,91,82,0.210,2.3,7.3,-0.4,3.705,4.6,241,12,6.0,0.00001,0.00002,31.7,31.9,17,0,0,0.0,6.09,0.00,0.00
15min,AgWx,bigpiney,439,17APR2020:01:45:00,13.6,12.55,1.6,1.8,5.9,9.9,1.8,85,90,79,0.135,2.2,7.2,-2.4,4.691,4.1,239,10,5.5,0.00001,0.00002,31.7,31.9,17,0,0,0.0,6.09,0.00,0.00
15min,AgWx,bigpiney,439,17APR2020:02:00:00,12.4,12.53,2.2,1.6,2.1,3.7,1.1,85,88,82,0.139,-1.4,1.0,-3.0,6.335,5.5,234,7.9,6.4,0.00001,0.00002,31.7,32.0,17,0,0,0.0,6.09,0.00,0.00
15min,AgWx,bigpiney,439,17APR2020:02:15:00,11.4,12.51,3.6,2.9,1.7,2.9,1.3,85,87,84,0.150,-1.7,-0.1,-2.3,5.897,5.7,227,5.7,6.6,0.00001,0.00002,31.7,31.9,17,0,0,0.0,6.09,0.00,0.00
15min,AgWx,bigpiney,439,17APR2020:02:30:00,10.6,12.5,5.5,5.0,3.4,5.9,2.0,87,90,85,0.167,0.4,3.6,-1.4,3.551,4.9,244,8.7,6.8,0.00001,0.00001,31.7,31.9,17,0,0,0.0,6.09,0.00,0.00
15min,AgWx,bigpiney,439,17APR2020:02:45:00,10.1,12.5,3.3,2.7,3.6,4.9,2.7,86,88,85,0.148,0.4,2.0,-0.8,4.362,4.0,239,11,5.2,0.00001,0.00001,31.7,31.9,17,0,0,0.0,6.09,0.00,0.00
15min,AgWx,bigpiney,439,17APR2020:03:00:00,10.0,12.48,5.7,5.1,4.3,5.2,2.8,87,88,86,0.168,1.4,2.4,-0.4,6.752,6.2,226,4.1,7.5,0.00001,0.00002,31.7,31.9,17,0,0,0.0,6.09,0.00,0.00
15min,AgWx,bigpiney,439,17APR2020:03:15:00,10.2,12.47,6.4,5.3,4.6,5.6,4.2,87,88,86,0.170,1.6,2.8,1.0,3.354,6.2,224,5.7,7.8,0.00001,0.00002,31.7,31.9,17,0,0,0.0,6.09,0.00,0.00
15min,AgWx,bigpiney,439,17APR2020:03:30:00,10.7,12.47,13.7,12.8,9.5,12.8,5.4,89,91,87,0.237,6.9,9.8,2.6,7.278,3.7,296,26,8.2,0.00000,0.00001,31.7,31.9,17,0,0,0.0,6.09,0.00,0.00
15min,AgWx,bigpiney,439,17APR2020:03:45:00,11.9,12.47,13.9,13.4,13.2,13.4,12.9,86,87,85,0.239,9.8,10.0,9.7,9.36,8.0,315,6.2,10.4,0.00003,0.00003,31.7,31.9,17,0,0,0.0,6.09,0.00,0.00
15min,AgWx,bigpiney,439,17APR2020:04:00:00,13.2,12.44,12.9,12.5,13.0,13.4,12.5,85,86,84,0.226,9.2,9.9,8.6,10.02,9.0,311,8.5,11.8,0.00003,0.00004,31.7,31.9,17,0,0,0.0,6.09,0.00,0.00
15min,AgWx,bigpiney,439,17APR2020:04:15:00,14.3,12.44,12.6,12.2,12.4,12.5,12.1,85,85,84,0.224,8.7,8.9,8.4,8.53,9.2,307,7.1,12.2,0.00003,0.00004,31.7,31.8,17,0,0,0.0,6.09,0.00,0.00
15min,AgWx,bigpiney,439,17APR2020:04:30:00,15.1,12.44,12.9,12.5,12.2,12.5,12.0,85,86,85,0.230,8.6,9.1,8.2,10.54,9.9,297,5.5,12.6,0.00003,0.00004,31.7,31.9,17,0,0,0.0,6.09,0.00,0.00
15min,AgWx,bigpiney,439,17APR2020:04:45:00,15.6,12.43,12.5,12.0,12.3,12.5,11.9,88,89,86,0.233,9.3,9.5,9.1,8.55,10.3,301,6.0,13.0,0.00003,0.00003,31.7,31.9,17,0,0,0.0,6.09,0.00,0.00
15min,AgWx,bigpiney,439,17APR2020:05:00:00,16.0,12.41,11.8,11.5,11.7,12.1,11.4,89,90,89,0.230,9.1,9.5,8.9,11.11,10.5,304,6.7,13.2,0.00002,0.00003,31.7,31.9,17,0,0,0.0,6.09,0.00,0.00
15min,AgWx,bigpiney,439,17APR2020:05:15:00,16.1,12.41,12.0,11.4,11.3,11.5,11.1,91,91,90,0.233,9.1,9.4,8.9,8.77,9.5,300,6.4,12.3,0.00002,0.00002,31.7,31.9,17,0,0,0.0,6.09,0.00,0.00
15min,AgWx,bigpiney,439,17APR2020:05:30:00,16.2,12.39,12.5,12.1,11.9,12.3,11.4,92,92,91,0.238,10.0,10.4,9.4,10.59,8.7,296,6.2,11.7,0.00001,0.00002,31.7,31.9,17,0,0,0.0,6.09,0.00,0.00
15min,AgWx,bigpiney,439,17APR2020:05:45:00,16.3,12.37,11.8,11.3,11.8,12.2,11.3,90,91,89,0.230,9.4,9.9,9.0,7.497,9.0,299,5.6,11.3,0.00002,0.00002,31.7,31.9,17,0,0,0.0,6.09,0.00,0.00
15min,AgWx,bigpiney,439,17APR2020:06:00:00,16.3,12.36,12.3,11.7,11.3,11.8,10.9,91,93,90,0.239,9.2,10.0,8.4,7.607,7.1,286,5.1,8.9,0.00001,0.00001,31.7,32.0,17,0,0,0.0,6.09,0.00,0.00
15min,AgWx,bigpiney,439,17APR2020:06:15:00,16.2,12.34,13.5,12.6,11.8,12.6,11.5,93,93,92,0.252,10.1,11.1,9.7,3.003,5.0,277,5.4,7.2,0.00000,0.00000,31.7,31.9,17,0,0,0.0,6.09,0.00,0.00
15min,AgWx,bigpiney,439,17APR2020:06:30:00,16.3,12.32,9.4,9.9,12.1,13.0,9.9,92,94,90,0.214,10.2,11.3,7.4,7.892,4.9,241,22,8.1,0.00000,0.00001,31.7,31.8,17,1,0,0.0,6.09,0.00,0.00
15min,AgWx,bigpiney,439,17APR2020:06:45:00,16.0,12.32,6.3,6.0,7.7,9.7,6.0,88,90,85,0.171,5.0,7.2,2.5,8.75,9.4,217,3.8,11.0,0.00002,0.00002,31.7,31.9,17,5,0,0.0,6.09,0.00,0.00
15min,AgWx,bigpiney,439,17APR2020:07:00:00,15.3,12.34,8.3,7.9,6.9,7.9,5.9,88,88,85,0.192,3.9,5.2,2.5,6.818,7.1,216,5.8,10.1,-0.00001,0.00003,31.7,31.9,17,15,0,0.0,6.09,0.00,0.00
15min,AgWx,bigpiney,439,17APR2020:07:15:00,14.7,12.34,7.3,7.7,7.8,8.3,7.5,86,88,85,0.184,4.5,5.2,4.0,8.26,6.9,219,6.7,9.3,0.00003,0.00008,31.7,31.9,17,34,0,0.0,6.09,0.00,0.00
15min,AgWx,bigpiney,439,17APR2020:07:30:00,14.4,12.44,6.0,5.6,6.0,7.5,5.3,84,85,84,0.166,2.2,3.9,1.5,8.53,8.3,225,5.1,10.4,0.00010,0.00015,31.7,31.9,17,51,0,0.0,6.09,0.00,0.00
15min,AgWx,bigpiney,439,17APR2020:07:45:00,14.0,12.62,6.0,5.8,5.6,5.8,5.3,84,85,84,0.166,1.9,2.2,1.5,7.607,7.6,228,4.1,9.4,0.00014,0.00019,31.7,31.9,17,99,0,0.0,6.09,0.00,0.00
15min,AgWx,bigpiney,439,17APR2020:08:00:00,13.8,13,8.2,7.3,5.7,7.3,4.6,84,89,81,0.189,1.8,4.7,0.1,3.749,4.8,254,40,8.1,0.00020,0.00024,31.7,31.9,17,145,0,0.0,6.09,0.00,0.00
15min,AgWx,bigpiney,439,17APR2020:08:15:00,14.0,13.52,6.9,6.8,7.5,7.9,6.8,90,90,87,0.181,5.1,5.5,3.7,1.841,1.6,8.8,33,3.7,0.00031,0.00034,31.7,31.8,17,197,0,0.0,6.09,0.00,0.00
15min,AgWx,bigpiney,439,17APR2020:08:30:00,14.9,13.7,6.4,5.9,6.5,7.2,5.5,85,87,83,0.168,3.0,3.9,1.5,2.368,2.0,209,7.7,3.4,0.00039,0.00042,31.7,31.9,17,238,0,0.0,6.09,0.00,0.00